| time (UTC) | temp C | wind direction | speed KPH | gust KPH | rain 1hr cm | rain 24hr cm | rain mn cm | humidity % | barometer mb |
| 20260506122904 | 18 | 220 | 9.7 | 25.7 | 0.00 | 0.00 | 0.00 | 69 | 1007.6 |
| 20260506122405 | 18 | 199 | 16.1 | 33.8 | 0.00 | 0.00 | 0.00 | 69 | 1007.7 |
| 20260506121904 | 18 | 207 | 14.5 | 33.8 | 0.00 | 0.00 | 0.00 | 69 | 1007.5 |
| 20260506120904 | 18 | 194 | 12.9 | 24.1 | 0.00 | 0.00 | 0.00 | 69 | 1007.9 |
| 20260506120404 | 18 | 219 | 11.3 | 20.9 | 0.00 | 0.00 | 0.00 | 69 | 1007.9 |
| 20260506115904 | 18 | 206 | 12.9 | 24.1 | 0.00 | 0.00 | 0.00 | 70 | 1007.9 |
| 20260506115404 | 18 | 208 | 14.5 | 27.4 | 0.00 | 0.00 | 0.00 | 70 | 1008.0 |
| 20260506114905 | 18 | 198 | 17.7 | 29.0 | 0.00 | 0.00 | 0.00 | 70 | 1008.0 |
| 20260506113904 | 18 | 201 | 14.5 | 24.1 | 0.00 | 0.00 | 0.00 | 70 | 1007.9 |
| 20260506113404 | 18 | 210 | 14.5 | 24.1 | 0.00 | 0.00 | 0.00 | 71 | 1007.9 |
| 20260506111904 | 18 | 226 | 11.3 | 25.7 | 0.00 | 0.00 | 0.00 | 72 | 1007.9 |
| 20260506111405 | 18 | 219 | 12.9 | 22.5 | 0.00 | 0.00 | 0.00 | 72 | 1007.8 |
| 20260506110904 | 18 | 196 | 9.7 | 24.1 | 0.00 | 0.00 | 0.00 | 73 | 1007.8 |
| 20260506110405 | 17 | 200 | 11.3 | 25.7 | 0.00 | 0.00 | 0.00 | 74 | 1007.8 |
| 20260506105904 | 17 | 160 | 9.7 | 24.1 | 0.00 | 0.00 | 0.00 | 74 | 1007.7 |
| 20260506105405 | 17 | 194 | 12.9 | 27.4 | 0.00 | 0.00 | 0.00 | 74 | 1007.8 |
| 20260506104905 | 17 | 182 | 12.9 | 20.9 | 0.00 | 0.00 | 0.00 | 75 | 1007.8 |
| 20260506103905 | 17 | 214 | 8.0 | 19.3 | 0.00 | 0.00 | 0.00 | 75 | 1007.8 |
| 20260506102905 | 17 | 188 | 8.0 | 19.3 | 0.00 | 0.00 | 0.00 | 75 | 1007.8 |
| 20260506102404 | 17 | 191 | 6.4 | 19.3 | 0.00 | 0.00 | 0.00 | 76 | 1007.7 |
| 20260506101905 | 17 | 215 | 9.7 | 19.3 | 0.00 | 0.00 | 0.00 | 76 | 1007.6 |
| 20260506101405 | 17 | 186 | 8.0 | 16.1 | 0.00 | 0.00 | 0.00 | 76 | 1007.6 |
| 20260506100904 | 17 | 201 | 9.7 | 19.3 | 0.00 | 0.00 | 0.00 | 76 | 1007.6 |
| 20260506100406 | 17 | 176 | 8.0 | 19.3 | 0.00 | 0.00 | 0.00 | 76 | 1007.6 |
| 20260506095405 | 17 | 188 | 8.0 | 22.5 | 0.00 | 0.00 | 0.00 | 75 | 1007.6 |
| 20260506094905 | 17 | 163 | 9.7 | 22.5 | 0.00 | 0.00 | 0.00 | 76 | 1007.5 |
| 20260506094405 | 17 | 178 | 11.3 | 24.1 | 0.00 | 0.00 | 0.00 | 76 | 1007.5 |
| 20260506093905 | 17 | 173 | 11.3 | 20.9 | 0.00 | 0.00 | 0.00 | 76 | 1007.5 |
| 20260506093404 | 17 | 212 | 9.7 | 19.3 | 0.00 | 0.00 | 0.00 | 76 | 1007.5 |
| 20260506092905 | 17 | 177 | 8.0 | 19.3 | 0.00 | 0.00 | 0.00 | 76 | 1007.6 |
| 20260506092405 | 17 | 191 | 8.0 | 19.3 | 0.00 | 0.00 | 0.00 | 76 | 1007.6 |
| 20260506091904 | 17 | 185 | 11.3 | 20.9 | 0.00 | 0.00 | 0.00 | 76 | 1007.7 |
| 20260506091404 | 17 | 178 | 9.7 | 20.9 | 0.00 | 0.00 | 0.00 | 76 | 1007.6 |
| 20260506090905 | 17 | 182 | 8.0 | 19.3 | 0.00 | 0.00 | 0.00 | 76 | 1007.7 |
| 20260506085905 | 17 | 179 | 14.5 | 24.1 | 0.00 | 0.00 | 0.00 | 76 | 1007.7 |
| 20260506085405 | 17 | 168 | 9.7 | 19.3 | 0.00 | 0.00 | 0.00 | 76 | 1007.8 |
| 20260506084404 | 17 | 179 | 12.9 | 20.9 | 0.00 | 0.00 | 0.00 | 76 | 1007.8 |
| 20260506083905 | 17 | 180 | 8.0 | 20.9 | 0.00 | 0.00 | 0.00 | 76 | 1007.7 |
| 20260506083404 | 17 | 185 | 8.0 | 19.3 | 0.00 | 0.00 | 0.00 | 76 | 1007.7 |
| 20260506082904 | 17 | 179 | 6.4 | 20.9 | 0.00 | 0.00 | 0.00 | 75 | 1007.8 |
| 20260506081904 | 17 | 167 | 9.7 | 16.1 | 0.00 | 0.00 | 0.00 | 74 | 1007.8 |
| 20260506081404 | 17 | 160 | 8.0 | 14.5 | 0.00 | 0.00 | 0.00 | 74 | 1007.8 |
| 20260506080904 | 17 | 167 | 8.0 | 22.5 | 0.00 | 0.00 | 0.00 | 74 | 1007.9 |
| 20260506080404 | 17 | 168 | 12.9 | 19.3 | 0.00 | 0.00 | 0.00 | 73 | 1007.8 |
| 20260506073405 | 17 | 179 | 4.8 | 19.3 | 0.00 | 0.00 | 0.00 | 72 | 1007.8 |
| 20260506072904 | 17 | 158 | 4.8 | 14.5 | 0.00 | 0.00 | 0.00 | 71 | 1007.8 |
| 20260506071905 | 18 | 173 | 4.8 | 19.3 | 0.00 | 0.00 | 0.00 | 69 | 1007.9 |
| 20260506071404 | 18 | 175 | 11.3 | 22.5 | 0.00 | 0.00 | 0.00 | 69 | 1007.9 |
| 20260506070904 | 18 | 181 | 9.7 | 20.9 | 0.00 | 0.00 | 0.00 | 68 | 1007.9 |
| 20260506070405 | 18 | 218 | 14.5 | 27.4 | 0.00 | 0.00 | 0.00 | 68 | 1008.1 |
| 20260506062404 | 18 | 195 | 11.3 | 20.9 | 0.00 | 0.00 | 0.00 | 66 | 1008.1 |
| 20260506061904 | 18 | 213 | 9.7 | 19.3 | 0.00 | 0.00 | 0.00 | 66 | 1008.0 |
| 20260506061405 | 18 | 196 | 11.3 | 19.3 | 0.00 | 0.00 | 0.00 | 66 | 1008.0 |
| 20260506060904 | 18 | 207 | 9.7 | 19.3 | 0.00 | 0.00 | 0.00 | 65 | 1008.0 |
| 20260506060405 | 19 | 177 | 11.3 | 22.5 | 0.00 | 0.00 | 0.00 | 65 | 1007.9 |
| 20260506050905 | 20 | 188 | 14.5 | 32.2 | 0.00 | 0.00 | 0.00 | 62 | 1008.6 |
| 20260506050406 | 20 | 179 | 20.9 | 32.2 | 0.00 | 0.00 | 0.00 | 61 | 1008.5 |
| 20260506044905 | 20 | 207 | 14.5 | 22.5 | 0.00 | 0.00 | 0.00 | 61 | 1008.4 |
| 20260506044405 | 20 | 204 | 11.3 | 22.5 | 0.00 | 0.00 | 0.00 | 60 | 1008.4 |
| 20260506043904 | 20 | 218 | 14.5 | 27.4 | 0.00 | 0.00 | 0.00 | 60 | 1008.5 |
| 20260506042405 | 20 | 214 | 17.7 | 32.2 | 0.00 | 0.00 | 0.00 | 59 | 1008.5 |
| 20260506041904 | 20 | 193 | 14.5 | 24.1 | 0.00 | 0.00 | 0.00 | 58 | 1008.4 |
| 20260506041405 | 20 | 204 | 14.5 | 32.2 | 0.00 | 0.00 | 0.00 | 58 | 1008.4 |
| 20260506040905 | 20 | 198 | 6.4 | 33.8 | 0.00 | 0.00 | 0.00 | 57 | 1008.3 |
| 20260506040405 | 20 | 194 | 19.3 | 33.8 | 0.00 | 0.00 | 0.00 | 57 | 1008.3 |
| 20260506035905 | 20 | 188 | 12.9 | 33.8 | 0.00 | 0.00 | 0.00 | 57 | 1008.3 |
| 20260506035406 | 20 | 200 | 14.5 | 27.4 | 0.00 | 0.00 | 0.00 | 57 | 1008.4 |
| 20260506034905 | 20 | 200 | 16.1 | 25.7 | 0.00 | 0.00 | 0.00 | 56 | 1008.4 |
| 20260506033905 | 20 | 200 | 14.5 | 32.2 | 0.00 | 0.00 | 0.00 | 56 | 1008.4 |
| 20260506033404 | 20 | 211 | 14.5 | 38.6 | 0.00 | 0.00 | 0.00 | 55 | 1008.4 |
| 20260506032906 | 20 | 193 | 14.5 | 27.4 | 0.00 | 0.00 | 0.00 | 55 | 1008.4 |
| 20260506032405 | 20 | 208 | 16.1 | 32.2 | 0.00 | 0.00 | 0.00 | 55 | 1008.3 |
| 20260506031904 | 20 | 213 | 9.7 | 22.5 | 0.00 | 0.00 | 0.00 | 55 | 1008.3 |
| 20260506031405 | 20 | 191 | 12.9 | 32.2 | 0.00 | 0.00 | 0.00 | 56 | 1008.3 |
| 20260506030905 | 20 | 178 | 9.7 | 20.9 | 0.00 | 0.00 | 0.00 | 56 | 1008.3 |
| 20260506030405 | 20 | 176 | 6.4 | 19.3 | 0.00 | 0.00 | 0.00 | 56 | 1008.2 |
| 20260506025906 | 20 | 193 | 11.3 | 24.1 | 0.00 | 0.00 | 0.00 | 56 | 1008.2 |
| 20260506025405 | 20 | 179 | 11.3 | 22.5 | 0.00 | 0.00 | 0.00 | 56 | 1008.2 |
| 20260506024905 | 20 | 176 | 9.7 | 24.1 | 0.00 | 0.00 | 0.00 | 57 | 1008.3 |
| 20260506024406 | 20 | 188 | 9.7 | 22.5 | 0.00 | 0.00 | 0.00 | 57 | 1008.3 |
| 20260506023905 | 20 | 202 | 8.0 | 19.3 | 0.00 | 0.00 | 0.00 | 56 | 1008.3 |
| 20260506023404 | 21 | 169 | 9.7 | 20.9 | 0.00 | 0.00 | 0.00 | 56 | 1008.4 |
| 20260506022905 | 21 | 184 | 11.3 | 20.9 | 0.00 | 0.00 | 0.00 | 55 | 1008.3 |
| 20260506022403 | 21 | 184 | 9.7 | 24.1 | 0.00 | 0.00 | 0.00 | 55 | 1008.2 |
| 20260506021904 | 21 | 179 | 8.0 | 20.9 | 0.00 | 0.00 | 0.00 | 55 | 1008.3 |
| 20260506021404 | 21 | 177 | 11.3 | 29.0 | 0.00 | 0.00 | 0.00 | 55 | 1008.3 |
| 20260506020903 | 21 | 183 | 9.7 | 24.1 | 0.00 | 0.00 | 0.00 | 55 | 1008.3 |
| 20260506020404 | 21 | 182 | 16.1 | 25.7 | 0.00 | 0.00 | 0.00 | 54 | 1008.2 |
| 20260506015904 | 21 | 184 | 8.0 | 20.9 | 0.00 | 0.00 | 0.00 | 54 | 1008.2 |
| 20260506015404 | 21 | 176 | 14.5 | 24.1 | 0.00 | 0.00 | 0.00 | 53 | 1008.2 |
| 20260506014904 | 21 | 176 | 16.1 | 32.2 | 0.00 | 0.00 | 0.00 | 53 | 1008.1 |
| 20260506014404 | 21 | 171 | 16.1 | 32.2 | 0.00 | 0.00 | 0.00 | 52 | 1008.0 |
| 20260506013904 | 21 | 179 | 14.5 | 37.0 | 0.00 | 0.00 | 0.00 | 52 | 1008.0 |
| 20260506013404 | 21 | 179 | 22.5 | 38.6 | 0.00 | 0.00 | 0.00 | 52 | 1007.9 |
| 20260506012404 | 21 | 183 | 9.7 | 25.7 | 0.00 | 0.00 | 0.00 | 50 | 1007.8 |
| 20260506011903 | 22 | 176 | 9.7 | 22.5 | 0.00 | 0.00 | 0.00 | 48 | 1007.7 |
| 20260506011404 | 22 | 150 | 6.4 | 25.7 | 0.00 | 0.00 | 0.00 | 45 | 1007.7 |
| 20260506005904 | 24 | 185 | 11.3 | 27.4 | 0.00 | 0.00 | 0.00 | 39 | 1007.3 |
| 20260506005404 | 24 | 198 | 16.1 | 27.4 | 0.00 | 0.00 | 0.00 | 39 | 1007.2 |
| 20260506004904 | 24 | 186 | 17.7 | 29.0 | 0.00 | 0.00 | 0.00 | 39 | 1007.2 |
| 20260506004404 | 24 | 230 | 14.5 | 32.2 | 0.00 | 0.00 | 0.00 | 38 | 1007.1 |
| 20260506003904 | 24 | 198 | 16.1 | 32.2 | 0.00 | 0.00 | 0.00 | 38 | 1007.1 |
| 20260506003404 | 25 | 200 | 19.3 | 37.0 | 0.00 | 0.00 | 0.00 | 38 | 1007.0 |
| 20260506002904 | 25 | 208 | 14.5 | 32.2 | 0.00 | 0.00 | 0.00 | 37 | 1007.0 |
| 20260506002404 | 25 | 207 | 19.3 | 33.8 | 0.00 | 0.00 | 0.00 | 37 | 1007.1 |
| 20260506001904 | 25 | 191 | 11.3 | 27.4 | 0.00 | 0.00 | 0.00 | 35 | 1006.9 |
| 20260506001404 | 25 | 203 | 8.0 | 20.9 | 0.00 | 0.00 | 0.00 | 34 | 1006.9 |
| 20260506000904 | 25 | 232 | 9.7 | 22.5 | 0.00 | 0.00 | 0.00 | 34 | 1006.9 |
| 20260506000404 | 25 | 215 | 19.3 | 32.2 | 0.00 | 0.00 | 0.00 | 33 | 1006.8 |
| 20260505235904 | 25 | 208 | 14.5 | 29.0 | 0.00 | 0.00 | 0.00 | 33 | 1006.7 |
| 20260505235404 | 25 | 221 | 17.7 | 29.0 | 0.00 | 0.00 | 0.00 | 32 | 1006.7 |
| 20260505234404 | 25 | 210 | 16.1 | 32.2 | 0.00 | 0.00 | 0.00 | 32 | 1006.6 |
| 20260505233904 | 25 | 202 | 4.8 | 19.3 | 0.00 | 0.00 | 0.00 | 32 | 1006.6 |
| 20260505233405 | 25 | 210 | 14.5 | 22.5 | 0.00 | 0.00 | 0.00 | 31 | 1006.6 |
| 20260505232905 | 25 | 212 | 11.3 | 27.4 | 0.00 | 0.00 | 0.00 | 31 | 1006.5 |
| 20260505231904 | 26 | 212 | 12.9 | 29.0 | 0.00 | 0.00 | 0.00 | 30 | 1006.2 |
| 20260505231404 | 26 | 230 | 19.3 | 37.0 | 0.00 | 0.00 | 0.00 | 29 | 1006.3 |
| 20260505230904 | 26 | 228 | 16.1 | 35.4 | 0.00 | 0.00 | 0.00 | 29 | 1006.2 |
| 20260505230404 | 26 | 209 | 19.3 | 35.4 | 0.00 | 0.00 | 0.00 | 29 | 1006.2 |
| 20260505225905 | 26 | 233 | 24.1 | 37.0 | 0.00 | 0.00 | 0.00 | 28 | 1006.1 |
| 20260505225405 | 26 | 223 | 16.1 | 32.2 | 0.00 | 0.00 | 0.00 | 28 | 1006.0 |
| 20260505224904 | 26 | 238 | 19.3 | 41.8 | 0.00 | 0.00 | 0.00 | 29 | 1006.0 |
| 20260505224405 | 26 | 226 | 20.9 | 40.2 | 0.00 | 0.00 | 0.00 | 28 | 1005.8 |
| 20260505223904 | 26 | 212 | 16.1 | 37.0 | 0.00 | 0.00 | 0.00 | 28 | 1005.9 |
| 20260505223405 | 26 | 229 | 20.9 | 33.8 | 0.00 | 0.00 | 0.00 | 28 | 1005.8 |
| 20260505222905 | 26 | 229 | 16.1 | 41.8 | 0.00 | 0.00 | 0.00 | 28 | 1005.7 |
| 20260505222404 | 27 | 222 | 19.3 | 40.2 | 0.00 | 0.00 | 0.00 | 27 | 1005.7 |
| 20260505221904 | 26 | 217 | 25.7 | 53.1 | 0.00 | 0.00 | 0.00 | 28 | 1005.8 |
| 20260505220905 | 26 | 221 | 22.5 | 40.2 | 0.00 | 0.00 | 0.00 | 28 | 1005.8 |
| 20260505220405 | 26 | 223 | 20.9 | 37.0 | 0.00 | 0.00 | 0.00 | 28 | 1005.7 |
| 20260505215905 | 27 | 220 | 22.5 | 46.7 | 0.00 | 0.00 | 0.00 | 28 | 1005.5 |
| 20260505215405 | 27 | 236 | 20.9 | 38.6 | 0.00 | 0.00 | 0.00 | 28 | 1005.5 |
| 20260505214904 | 27 | 216 | 22.5 | 45.1 | 0.00 | 0.00 | 0.00 | 28 | 1005.4 |
| 20260505214404 | 27 | 205 | 16.1 | 33.8 | 0.00 | 0.00 | 0.00 | 29 | 1005.2 |
| 20260505213905 | 27 | 207 | 19.3 | 40.2 | 0.00 | 0.00 | 0.00 | 28 | 1005.5 |
| 20260505213405 | 27 | 228 | 25.7 | 48.3 | 0.00 | 0.00 | 0.00 | 28 | 1005.5 |
| 20260505212905 | 27 | 200 | 24.1 | 41.8 | 0.00 | 0.00 | 0.00 | 29 | 1005.3 |
| 20260505212404 | 28 | 203 | 20.9 | 40.2 | 0.00 | 0.00 | 0.00 | 28 | 1005.3 |
| 20260505211905 | 27 | 212 | 24.1 | 41.8 | 0.00 | 0.00 | 0.00 | 29 | 1005.3 |
| 20260505211405 | 27 | 194 | 29.0 | 45.1 | 0.00 | 0.00 | 0.00 | 29 | 1005.4 |
| 20260505205404 | 28 | 232 | 19.3 | 35.4 | 0.00 | 0.00 | 0.00 | 28 | 1005.3 |
| 20260505203904 | 28 | 216 | 19.3 | 33.8 | 0.00 | 0.00 | 0.00 | 28 | 1005.3 |
| 20260505202403 | 28 | 217 | 20.9 | 41.8 | 0.00 | 0.00 | 0.00 | 30 | 1005.5 |
| 20260505201904 | 28 | 212 | 32.2 | 59.5 | 0.00 | 0.00 | 0.00 | 28 | 1005.5 |
| 20260505201404 | 28 | 213 | 25.7 | 48.3 | 0.00 | 0.00 | 0.00 | 29 | 1005.4 |
| 20260505200903 | 28 | 216 | 16.1 | 29.0 | 0.00 | 0.00 | 0.00 | 30 | 1005.5 |
| 20260505200404 | 28 | 197 | 22.5 | 33.8 | 0.00 | 0.00 | 0.00 | 29 | 1005.5 |
| 20260505195904 | 28 | 228 | 17.7 | 38.6 | 0.00 | 0.00 | 0.00 | 29 | 1005.7 |
| 20260505195403 | 28 | 222 | 20.9 | 41.8 | 0.00 | 0.00 | 0.00 | 29 | 1005.8 |
| 20260505194904 | 28 | 197 | 27.4 | 41.8 | 0.00 | 0.00 | 0.00 | 28 | 1005.8 |
| 20260505194404 | 28 | 230 | 27.4 | 41.8 | 0.00 | 0.00 | 0.00 | 28 | 1005.7 |
| 20260505193904 | 28 | 209 | 27.4 | 56.3 | 0.00 | 0.00 | 0.00 | 30 | 1005.7 |
| 20260505193404 | 28 | 196 | 22.5 | 41.8 | 0.00 | 0.00 | 0.00 | 30 | 1006.0 |
| 20260505192904 | 28 | 200 | 24.1 | 41.8 | 0.00 | 0.00 | 0.00 | 31 | 1006.0 |
| 20260505191905 | 28 | 217 | 16.1 | 37.0 | 0.00 | 0.00 | 0.00 | 32 | 1006.2 |
| 20260505191403 | 28 | 220 | 24.1 | 37.0 | 0.00 | 0.00 | 0.00 | 31 | 1006.3 |
| 20260505190904 | 28 | 194 | 24.1 | 41.8 | 0.00 | 0.00 | 0.00 | 30 | 1006.2 |
| 20260505190405 | 28 | 215 | 16.1 | 32.2 | 0.00 | 0.00 | 0.00 | 32 | 1006.4 |
| 20260505185904 | 28 | 197 | 14.5 | 40.2 | 0.00 | 0.00 | 0.00 | 35 | 1006.7 |
| 20260505185404 | 28 | 217 | 22.5 | 37.0 | 0.00 | 0.00 | 0.00 | 33 | 1006.7 |
| 20260505184904 | 28 | 208 | 17.7 | 38.6 | 0.00 | 0.00 | 0.00 | 34 | 1006.8 |
| 20260505183403 | 28 | 216 | 14.5 | 41.8 | 0.00 | 0.00 | 0.00 | 35 | 1006.8 |
| 20260505182904 | 28 | 179 | 24.1 | 41.8 | 0.00 | 0.00 | 0.00 | 33 | 1006.9 |
| 20260505182405 | 28 | 211 | 17.7 | 32.2 | 0.00 | 0.00 | 0.00 | 36 | 1006.9 |
| 20260505181905 | 28 | 183 | 17.7 | 33.8 | 0.00 | 0.00 | 0.00 | 33 | 1007.0 |
| 20260505181405 | 28 | 202 | 22.5 | 40.2 | 0.00 | 0.00 | 0.00 | 34 | 1007.0 |
| 20260505180905 | 28 | 215 | 24.1 | 40.2 | 0.00 | 0.00 | 0.00 | 33 | 1007.1 |
| 20260505180404 | 28 | 198 | 19.3 | 41.8 | 0.00 | 0.00 | 0.00 | 33 | 1007.0 |
| 20260505175904 | 28 | 195 | 20.9 | 37.0 | 0.00 | 0.00 | 0.00 | 35 | 1007.0 |
| 20260505175406 | 27 | 190 | 11.3 | 25.7 | 0.00 | 0.00 | 0.00 | 38 | 1007.0 |
| 20260505174904 | 27 | 193 | 14.5 | 35.4 | 0.00 | 0.00 | 0.00 | 40 | 1007.1 |
| 20260505174404 | 27 | 210 | 20.9 | 37.0 | 0.00 | 0.00 | 0.00 | 38 | 1007.2 |
| 20260505173905 | 27 | 172 | 20.9 | 33.8 | 0.00 | 0.00 | 0.00 | 36 | 1007.3 |
| 20260505173406 | 27 | 211 | 11.3 | 33.8 | 0.00 | 0.00 | 0.00 | 39 | 1007.3 |
| 20260505172904 | 27 | 182 | 11.3 | 20.9 | 0.00 | 0.00 | 0.00 | 41 | 1007.5 |
| 20260505172404 | 27 | 210 | 16.1 | 25.7 | 0.00 | 0.00 | 0.00 | 41 | 1007.5 |
| 20260505171904 | 26 | 156 | 14.5 | 27.4 | 0.00 | 0.00 | 0.00 | 42 | 1007.4 |
| 20260505170905 | 26 | 166 | 14.5 | 25.7 | 0.00 | 0.00 | 0.00 | 42 | 1007.6 |
| 20260505170405 | 27 | 193 | 14.5 | 29.0 | 0.00 | 0.00 | 0.00 | 40 | 1007.7 |
| 20260505165904 | 26 | 202 | 8.0 | 19.3 | 0.00 | 0.00 | 0.00 | 42 | 1007.7 |
| 20260505164905 | 26 | 208 | 12.9 | 25.7 | 0.00 | 0.00 | 0.00 | 43 | 1007.9 |
| 20260505164404 | 26 | 167 | 8.0 | 19.3 | 0.00 | 0.00 | 0.00 | 41 | 1007.8 |
| 20260505163906 | 26 | 192 | 11.3 | 22.5 | 0.00 | 0.00 | 0.00 | 41 | 1007.9 |
| 20260505163405 | 27 | 207 | 9.7 | 22.5 | 0.00 | 0.00 | 0.00 | 40 | 1008.0 |
| 20260505162904 | 26 | 242 | 4.8 | 24.1 | 0.00 | 0.00 | 0.00 | 41 | 1008.1 |
| 20260505162404 | 26 | 210 | 8.0 | 20.9 | 0.00 | 0.00 | 0.00 | 41 | 1008.2 |
| 20260505161405 | 25 | 209 | 9.7 | 20.9 | 0.00 | 0.00 | 0.00 | 43 | 1008.4 |
| 20260505160905 | 25 | 173 | 8.0 | 24.1 | 0.00 | 0.00 | 0.00 | 44 | 1008.4 |
| 20260505160404 | 25 | 222 | 9.7 | 25.7 | 0.00 | 0.00 | 0.00 | 44 | 1008.4 |
| 20260505151905 | 23 | 177 | 6.4 | 22.5 | 0.00 | 0.00 | 0.00 | 45 | 1009.0 |
| 20260505151405 | 23 | 213 | 9.7 | 16.1 | 0.00 | 0.00 | 0.00 | 50 | 1009.0 |
| 20260505150405 | 23 | 174 | 3.2 | 14.5 | 0.00 | 0.00 | 0.00 | 47 | 1008.9 |
| 20260505140404 | 21 | 231 | 9.7 | 19.3 | 0.00 | 0.00 | 0.00 | 52 | 1009.5 |
| 20260505124905 | 18 | 225 | 6.4 | 16.1 | 0.00 | 0.00 | 0.00 | 60 | 1008.9 |
| 20260505124404 | 18 | 229 | 3.2 | 16.1 | 0.00 | 0.00 | 0.00 | 62 | 1009.0 |
| 20260505123905 | 18 | 216 | 6.4 | 16.1 | 0.00 | 0.00 | 0.00 | 63 | 1009.0 |
| 20260505123404 | 17 | 218 | 4.8 | 9.7 | 0.00 | 0.00 | 0.00 | 64 | 1009.1 |